Home   Weather   Medicine Hat   Past weeks

Flag for Canada Past Weather in Medicine Hat, Alberta, Canada — Yesterday and Last 2 Weeks

Now
59 °F

Partly sunny.


Feels Like: 57 °F
Forecast: 42 / 60 °F
Wind: 10 mph from West

Location: Medicine Hat

Current Time: Apr 30, 2017 at 1:15:27 pm

Latest Report: Apr 30, 2017 at 12:00 pm


Visibility: 30 mi

Pressure: 29.79 "Hg (27.55 "Hg at 661m altitude)

Humidity: 36%

Dew Point: 32 °F

Location of Medicine HatLocation

Past Weather in Medicine Hat — Graph

°F

Medicine Hat Temperature Yesterday

Maximum temperature yesterday: 61 °F (at 3:00 pm)
Minimum temperature yesterday: 28 °F (at 5:00 am)
Average temperature yesterday: 46 °F

High & Low Weather Summary for the Past Weeks

 TemperatureHumidityPressure
High68 °F (Apr 20, 3:00 pm)100% (Apr 21, 11:54 pm)30.38 "Hg (Apr 21, 11:54 pm)
Low25 °F (Apr 16, 8:43 am)18% (Apr 20, 3:00 pm)29.67 "Hg (Apr 24, 4:00 am)
Average42 °F75%29.97 "Hg
* Reported Apr 15 12:00 pm — Apr 30 12:00 pm, Medicine Hat, Weather by CustomWeather, © 2017

Note: Actual official high and low records may vary slightly from our data, if they occured in-between our weather recording intervals... More about our weather records

Advertising

Medicine Hat Weather History for the Previous 24 Hours

Scroll right to see more
 ConditionsComfort  
Time TempWeatherWind HumidityBarometerVisibility
12:00 pm
Sun, Apr 30
59 °FPartly sunny.10 mph36%29.79 "Hg30 mi
11:00 am57 °FPartly sunny.17 mph41%29.80 "Hg30 mi
10:00 am54 °FMore clouds than sun.20 mph47%29.82 "Hg30 mi
9:00 am50 °FMostly cloudy.14 mph58%29.83 "Hg30 mi
8:00 am48 °FMostly cloudy.9 mph66%29.84 "Hg30 mi
7:00 am46 °FOvercast.9 mph66%29.84 "Hg30 mi
6:00 am46 °FOvercast.10 mph62%29.85 "Hg9 mi
5:00 am45 °FMostly cloudy.9 mph66%29.86 "Hg9 mi
4:00 am45 °FPassing clouds.10 mph66%29.86 "Hg9 mi
3:00 am43 °FMostly cloudy.8 mph71%29.88 "Hg9 mi
2:00 am41 °FPartly cloudy.7 mph76%29.90 "Hg9 mi
1:00 am41 °FPartly cloudy.6 mph76%29.93 "Hg9 mi
12:00 am43 °FClear.5 mph76%29.95 "Hg9 mi
11:00 pm
Sat, Apr 29
46 °FPassing clouds.3 mph62%29.96 "Hg9 mi
10:00 pm46 °FOvercast.8 mph66%29.98 "Hg9 mi
9:00 pm50 °FPartly cloudy.10 mph58%30.01 "Hg30 mi
8:00 pm52 °FScattered clouds.8 mph54%30.01 "Hg30 mi
7:00 pm55 °FScattered clouds.7 mph41%30.02 "Hg30 mi
6:00 pm57 °FPartly sunny.9 mph36%30.03 "Hg30 mi
5:00 pm59 °FPartly sunny.14 mph29%30.04 "Hg30 mi
4:00 pm59 °FPartly sunny.12 mph29%30.05 "Hg30 mi
3:00 pm61 °FPartly sunny.10 mph31%30.07 "Hg30 mi
2:00 pm59 °FPartly sunny.14 mph39%30.09 "Hg30 mi
1:00 pm57 °FPartly sunny.14 mph41%30.12 "Hg30 mi
Weather by CustomWeather, © 2017

See weather overviewHow to use our weather pages